GFSSE_sfc_thetae_021.txt.gz
Theta_e
327 332 336 341 344 346 347 347 348 347 348 348 348 348 348 348 348 348 348 347 346 346 346 348 349 349 349 347 346 346 345 346 346 346 346 350 352 352 352 354 353 349 353
327 330 332 336 340 341 343 344 345 345 344 344 344 344 343 344 345 344 344 344 345 345 345 345 347 347 347 347 346 346 346 347 347 346 345 344 350 353 351 353 353 350 353
323 326 328 331 334 336 338 339 339 339 340 341 341 341 341 341 341 341 341 341 342 344 345 345 345 346 346 346 345 345 345 347 348 345 343 337 345 352 352 353 353 353 352
321 323 323 327 330 332 334 333 334 334 336 336 336 336 337 336 335 335 336 336 336 339 341 343 344 343 343 343 343 343 344 344 346 344 341 332 340 352 350 351 352 353 354
318 320 320 324 325 328 329 328 328 329 329 330 332 331 328 327 328 330 330 330 331 332 333 335 336 338 338 339 340 342 342 343 343 338 341 340 337 345 351 351 352 351 350
315 317 318 321 322 323 323 323 322 323 323 324 326 322 321 320 320 321 322 323 324 326 328 329 332 333 332 334 337 337 337 338 338 337 337 340 340 346 347 351 352 350 348
311 313 315 317 318 319 320 319 319 319 318 319 319 317 316 316 316 317 317 318 319 320 321 324 327 326 326 326 328 330 328 327 333 335 336 339 341 345 344 345 349 351 351
309 310 311 313 314 315 315 316 316 316 315 314 313 313 312 312 313 313 314 315 316 316 317 319 319 318 318 319 321 320 320 320 325 331 335 338 340 343 342 344 346 349 351
305 306 306 309 309 311 311 312 312 312 311 310 309 308 308 307 308 308 308 311 312 313 313 314 314 315 315 314 313 314 314 315 318 330 332 335 339 340 341 342 343 345 349
303 303 304 304 305 307 307 307 308 307 307 306 304 303 302 305 304 304 304 307 309 309 310 311 311 312 311 311 310 310 312 313 322 325 328 333 337 338 340 341 341 342 344
301 302 303 303 303 304 304 303 303 303 302 302 303 301 306 302 302 302 302 303 305 306 307 308 309 309 308 311 312 312 313 309 309 313 320 329 332 335 336 337 339 341 343
300 301 302 302 302 302 299 303 303 302 302 303 303 302 302 302 300 301 303 302 303 302 304 305 306 306 307 305 305 309 306 306 306 308 310 323 323 328 333 334 336 339 341
302 301 301 301 302 302 301 302 302 303 302 302 302 301 302 301 301 301 301 301 301 302 300 300 301 301 302 303 304 304 304 305 305 306 308 315 313 317 322 327 331 334 338
302 301 300 301 301 302 302 302 302 301 301 301 300 300 300 300 299 299 299 299 300 299 299 299 299 300 300 301 302 302 302 303 304 305 307 311 311 312 315 318 323 331 333
301 300 299 300 300 300 301 301 301 300 300 300 299 298 298 298 297 297 297 297 297 296 296 296 297 297 298 298 299 299 299 301 302 303 305 308 310 310 313 316 318 322 330
302 300 299 299 300 300 299 300 300 299 299 299 298 297 297 297 296 295 296 295 295 295 295 295 294 294 295 297 296 297 297 298 300 301 303 304 309 309 310 313 315 317 320
302 300 299 298 299 298 299 299 299 299 297 297 297 296 295 295 294 294 294 294 294 294 294 294 294 294 294 294 294 296 297 298 298 298 300 302 304 307 309 310 311 314 316
302 300 299 297 297 298 298 298 298 297 297 297 296 295 294 293 293 293 293 293 293 292 292 292 292 292 292 292 293 295 295 296 296 297 298 300 301 302 305 306 308 310 312
301 299 298 297 296 297 298 297 297 297 296 296 295 295 294 292 292 291 291 291 292 291 291 291 291 291 290 291 292 292 292 293 295 296 298 299 300 301 302 305 308 308 308
301 300 298 296 296 297 297 297 296 295 295 295 294 294 292 291 291 291 291 290 291 290 290 290 289 290 289 290 289 289 292 294 295 296 297 298 301 302 303 304 305 306 309
301 298 296 295 296 296 296 294 294 293 294 294 294 292 291 290 290 290 289 289 289 289 289 289 288 288 289 289 288 289 289 292 294 297 299 299 295 296 300 303 303 304 307
299 297 296 296 296 295 296 296 295 295 295 294 294 292 291 290 289 288 288 288 288 288 288 288 288 286 287 288 285 285 285 288 295 292 292 293 296 295 296 299 300 301 302
298 297 296 296 296 295 296 295 293 292 291 290 291 291 290 289 289 288 288 287 287 287 286 287 287 286 284 286 287 283 282 282 283 290 289 290 293 293 293 293 295 296 297
298 298 296 296 295 296 295 293 291 289 289 290 292 291 289 289 288 288 287 286 286 287 286 286 286 285 285 283 285 286 286 284 280 279 287 288 289 290 292 292 292 295 296
298 297 296 295 295 295 295 292 291 290 291 292 290 288 288 288 288 287 287 286 285 286 286 285 285 285 285 283 283 284 283 284 284 281 278 282 286 288 289 290 290 291 294
298 296 295 294 293 295 293 292 291 290 290 289 288 287 287 287 287 287 286 285 285 284 284 284 284 284 283 283 283 283 282 281 281 281 281 281 281 283 285 287 287 288 289

GFSSE_sfc_thetae_024.txt.gz
Theta_e
324 329 337 342 344 346 348 348 348 348 348 347 347 347 347 347 346 346 346 347 347 346 346 347 348 349 349 348 347 346 347 346 346 345 343 343 347 351 351 352 351 349 354
325 327 334 337 341 343 345 345 344 345 345 345 345 344 344 344 344 343 342 342 344 346 346 346 347 348 348 347 346 346 346 347 348 346 345 343 342 351 352 352 351 351 353
322 326 327 334 336 339 339 339 340 340 341 342 341 341 341 340 339 339 338 338 340 342 344 345 345 344 344 344 344 344 344 345 346 344 342 339 334 350 354 352 351 352 352
320 321 323 332 333 335 334 335 335 336 335 336 337 336 334 333 334 334 333 333 334 335 336 337 337 338 339 340 342 342 343 343 344 341 335 338 332 349 351 351 353 352 353
316 319 321 328 330 331 330 330 330 331 332 334 329 328 327 327 326 326 326 326 327 329 331 333 334 334 333 334 336 338 337 336 336 336 333 336 333 339 349 351 352 351 347
314 316 321 324 326 326 325 325 325 325 327 326 323 322 321 321 321 321 320 321 321 322 324 328 327 327 326 327 327 329 329 328 330 330 332 334 335 346 345 345 347 349 348
310 313 316 321 322 322 322 321 321 321 321 320 319 318 317 317 317 317 318 318 318 318 320 320 320 319 319 320 321 322 322 321 319 323 328 331 334 345 343 344 345 347 349
308 310 312 317 318 318 319 318 318 317 317 316 315 314 314 313 313 313 315 315 316 316 317 317 317 317 316 316 315 315 315 315 313 316 325 329 336 343 342 342 343 344 347
305 306 307 308 310 314 315 315 315 314 312 311 310 310 309 309 309 309 310 312 312 313 314 314 314 314 314 314 313 312 312 315 311 314 322 327 337 340 341 341 341 342 343
300 301 301 304 305 305 305 311 310 310 309 307 306 305 306 306 306 305 305 308 309 310 310 311 311 311 311 312 312 312 315 316 303 305 312 319 329 332 337 337 336 338 340
299 299 299 299 301 302 302 305 306 306 305 305 303 302 305 298 298 300 303 305 306 307 308 309 309 309 308 308 309 311 311 302 301 302 304 319 318 322 328 333 334 335 336
295 297 298 298 298 300 300 299 300 300 299 299 299 298 298 297 297 300 303 304 304 304 304 305 306 304 302 299 299 304 300 300 300 301 302 316 314 316 318 321 324 329 333
296 296 297 297 298 297 296 298 298 298 297 298 297 297 297 297 296 296 296 296 296 300 295 297 296 296 296 296 297 297 298 298 298 300 303 310 311 313 315 316 318 319 324
297 297 296 297 297 297 297 297 297 297 297 296 295 295 295 294 293 293 293 293 293 293 292 292 293 294 294 295 295 295 295 295 296 298 300 309 308 311 314 316 317 318 320
298 297 295 295 296 297 296 296 296 295 295 295 295 294 294 293 292 293 292 292 291 291 291 290 291 291 292 293 294 294 293 293 294 296 297 305 307 309 311 314 315 317 318
300 297 296 295 295 297 295 295 295 295 294 294 294 293 293 292 290 291 291 291 290 290 290 290 290 290 290 292 292 293 293 293 294 294 295 296 304 306 308 311 313 315 317
300 298 295 295 296 295 295 295 295 294 294 293 293 292 292 292 290 290 290 289 289 289 289 289 289 289 289 290 290 291 292 293 293 293 294 295 296 302 305 308 310 312 314
299 297 296 297 295 294 293 294 294 293 292 293 292 292 291 291 290 289 288 288 289 288 288 288 288 287 287 288 287 289 290 290 291 291 292 294 295 296 300 304 307 309 310
299 296 295 294 294 293 293 293 293 292 291 291 291 290 290 290 290 288 287 287 288 287 287 287 286 286 285 286 287 288 288 288 289 292 292 293 294 297 297 302 306 307 308
298 296 294 294 292 293 293 292 291 291 291 290 289 290 290 289 289 288 287 287 287 286 286 286 285 285 285 285 287 286 287 288 289 288 290 293 294 295 294 297 299 301 307
297 295 294 292 292 293 291 290 289 289 289 289 289 289 289 288 288 287 286 286 285 284 285 285 285 284 284 285 283 283 284 287 287 288 291 290 290 291 292 292 294 297 299
296 295 293 293 292 292 292 291 290 289 289 289 289 288 288 287 287 286 285 284 284 283 284 284 284 283 283 284 281 280 279 282 285 285 286 286 288 289 292 292 290 291 291
295 294 293 293 292 292 292 291 289 289 287 286 287 286 287 287 286 286 284 284 283 283 282 282 282 282 281 282 282 280 277 277 279 283 284 284 285 286 287 288 290 291 291
295 295 293 293 292 292 292 291 288 287 284 285 287 286 286 286 285 285 285 283 283 282 282 282 284 282 281 280 281 284 282 280 277 276 282 283 284 285 285 287 288 289 289
295 293 293 292 292 292 292 291 288 286 285 286 286 286 285 284 284 284 284 283 282 282 282 282 281 281 281 280 280 280 280 280 280 278 276 278 283 284 285 285 285 286 287
294 292 292 291 291 291 291 290 288 286 286 284 283 283 283 283 283 283 283 282 282 281 280 281 281 281 280 280 280 280 280 278 277 277 276 277 278 280 283 283 283 284 285

GFSSE_sfc_thetae_030.txt.gz
Theta_e
324 332 344 347 348 348 348 349 349 348 348 348 348 347 346 345 344 344 345 347 348 347 347 348 346 346 346 346 345 345 344 344 344 343 341 343 344 343 350 351 349 347 351
325 332 342 345 347 347 347 347 347 347 347 347 346 346 345 343 342 340 340 341 343 343 344 344 343 343 343 343 343 344 343 342 341 340 341 339 340 347 344 351 349 348 350
326 330 334 342 343 344 345 346 345 346 345 345 344 341 339 338 337 336 336 337 338 339 339 338 337 338 338 339 340 340 339 337 337 337 338 332 331 352 351 349 350 351 350
323 326 331 338 339 339 339 340 339 339 339 339 338 337 337 336 334 333 332 332 333 335 335 334 333 332 332 333 333 333 333 332 332 330 328 331 333 349 348 347 347 349 349
319 323 329 338 337 338 338 338 336 336 338 335 334 333 331 330 328 327 326 325 327 330 330 327 326 325 324 325 326 326 326 325 325 319 321 326 330 343 346 346 345 345 345
316 320 331 336 336 335 335 335 335 335 332 330 328 326 325 324 323 322 322 322 323 323 322 321 320 320 319 319 319 318 317 318 315 308 311 322 326 339 342 344 344 344 344
313 317 325 333 332 332 332 332 333 330 328 325 323 322 321 321 321 320 320 320 320 320 319 319 318 317 317 316 316 317 317 315 309 308 313 323 321 343 342 343 342 342 342
312 314 319 327 329 328 328 328 328 326 324 322 321 320 319 318 318 318 318 318 318 318 317 317 317 317 316 316 315 314 313 311 301 301 303 315 323 334 339 340 339 338 338
310 310 312 315 321 325 325 324 323 322 321 319 318 317 316 314 315 315 315 315 316 316 316 315 314 313 313 313 312 311 310 309 297 300 302 308 320 325 328 329 332 334 336
306 307 307 308 310 311 314 321 321 319 318 316 314 313 311 309 310 310 310 313 313 313 313 312 311 309 309 309 309 308 306 304 297 298 299 306 316 319 321 322 322 324 326
303 304 303 304 304 305 307 311 316 316 314 313 311 309 305 298 299 301 308 309 309 309 310 309 307 305 303 303 303 303 301 295 295 296 297 308 313 317 318 319 319 320 320
299 300 302 301 301 302 306 305 302 303 300 298 297 297 295 294 296 300 304 304 304 304 305 305 303 301 296 292 292 296 292 292 293 293 295 306 309 314 316 317 318 319 320
299 299 300 300 300 299 301 298 296 297 296 295 294 295 294 295 295 293 292 292 291 294 291 292 291 291 291 291 291 290 291 291 290 292 295 302 305 310 313 315 316 317 319
293 297 298 298 299 297 296 296 295 295 294 293 293 294 292 291 291 290 290 289 289 289 288 288 289 289 289 290 290 290 289 289 290 291 292 299 302 306 309 312 314 316 317
293 295 296 296 298 297 294 295 294 293 294 293 292 294 293 291 290 290 289 288 287 288 287 287 288 288 288 289 289 289 289 289 289 290 291 297 299 303 306 309 313 314 315
295 295 295 295 296 296 294 294 295 294 293 292 291 292 292 291 289 289 288 288 287 287 287 287 287 287 287 288 288 288 288 289 289 289 289 289 297 301 304 307 310 311 313
297 296 294 295 295 295 294 294 294 294 294 292 291 290 291 291 289 288 288 287 286 287 286 286 286 286 286 287 286 287 288 288 288 288 288 288 290 296 301 305 307 308 310
298 295 295 296 295 294 294 294 294 293 293 292 290 289 290 290 289 288 287 286 286 286 286 285 285 284 284 284 284 285 286 287 287 287 288 288 289 292 296 302 303 305 306
298 297 295 295 294 294 294 293 293 292 291 291 289 288 289 289 289 287 286 286 286 285 285 285 284 283 283 283 284 285 285 284 285 288 287 289 289 291 292 297 299 301 301
299 297 296 295 294 294 293 292 290 290 289 289 289 289 288 288 288 286 285 285 285 284 284 284 283 283 283 282 284 284 283 283 284 284 286 288 288 289 288 290 291 290 297
298 296 295 293 293 293 292 290 290 291 289 287 288 289 287 287 287 285 285 284 284 283 283 283 283 282 281 282 281 281 282 283 284 283 283 283 285 287 288 288 287 288 289
297 295 294 293 292 293 294 293 292 292 287 290 289 288 288 287 286 285 284 283 283 282 282 282 282 281 281 281 279 279 278 280 283 283 283 283 282 285 285 286 287 288 288
297 294 293 293 292 294 293 292 287 287 286 285 286 286 287 287 286 285 284 283 282 282 281 281 281 281 280 280 280 279 277 276 278 281 282 282 282 282 283 285 285 286 286
297 295 294 293 293 293 292 291 290 289 288 289 289 286 284 286 285 285 284 283 282 281 281 281 282 281 280 279 280 282 279 279 277 276 280 280 282 282 283 283 284 285 285
296 294 293 293 292 293 291 291 290 289 289 285 285 284 285 284 284 284 283 282 281 281 281 281 280 280 280 279 279 279 278 278 278 277 275 278 281 281 282 283 283 283 284
293 292 292 291 291 291 290 290 290 289 285 284 284 285 284 284 283 283 282 281 281 280 280 280 280 280 279 279 280 279 279 277 277 277 275 276 276 279 281 282 282 283 284

GFSSE_sfc_thetae_033.txt.gz
Theta_e
326 332 346 348 348 349 348 348 348 348 348 348 348 347 347 346 345 345 347 348 348 347 347 346 346 346 345 344 344 343 341 342 341 341 342 342 344 346 345 349 348 346 350
328 333 344 346 348 348 346 347 349 348 348 347 346 345 344 343 341 340 342 342 343 344 344 343 342 342 341 342 342 340 339 338 338 337 339 337 339 351 343 349 349 348 350
329 333 339 346 348 348 347 347 347 347 346 346 345 343 340 340 338 336 336 338 339 339 339 337 335 335 336 335 335 334 334 333 333 331 332 329 331 350 350 349 349 349 349
328 330 333 342 345 346 346 347 347 345 343 342 340 338 337 337 335 334 334 334 335 336 335 333 331 330 329 330 329 328 327 327 325 321 319 325 330 347 347 346 345 345 346
323 326 330 339 341 341 341 341 340 340 340 338 337 337 334 332 330 328 327 328 332 331 328 326 324 322 322 322 322 321 321 321 318 313 314 323 326 338 345 345 343 343 344
319 323 332 338 339 339 339 339 337 340 337 335 334 332 330 327 325 324 324 324 324 323 322 321 320 319 319 319 319 320 318 317 312 307 315 316 321 341 344 343 342 342 342
315 320 327 337 337 337 337 336 336 336 334 332 330 328 326 324 323 322 322 322 322 321 320 319 319 319 319 317 317 316 315 311 301 300 305 312 320 338 341 341 340 339 338
314 317 323 330 333 335 335 335 334 333 330 327 325 324 323 322 321 320 320 320 320 319 319 319 319 317 316 316 314 313 312 308 300 299 302 308 321 329 331 332 333 335 336
312 314 316 320 324 329 331 332 331 329 326 324 323 322 320 320 319 319 319 318 318 318 318 315 315 314 314 313 312 309 307 306 294 297 301 306 318 324 325 325 325 326 327
308 310 311 313 316 316 318 325 326 325 324 321 320 319 318 317 316 315 318 316 316 316 314 312 311 310 310 309 307 305 303 301 293 295 297 306 316 320 322 321 321 322 322
306 307 307 308 309 310 311 315 320 322 321 319 317 315 309 300 302 303 311 313 313 313 311 309 307 305 303 303 304 302 299 292 292 293 295 307 312 316 319 319 320 321 321
302 303 304 304 305 305 309 307 306 308 306 304 302 300 296 295 297 301 306 309 308 308 308 306 304 300 295 290 291 295 290 290 290 291 294 304 309 313 316 317 318 319 320
302 302 303 303 302 302 303 302 300 299 297 296 296 294 293 294 297 295 294 292 291 295 290 292 290 290 289 289 289 288 289 289 288 290 294 302 306 309 312 314 316 318 319
298 301 301 301 300 299 299 299 297 296 294 293 293 293 292 292 290 290 289 289 288 288 287 288 288 288 288 289 289 288 288 288 288 289 291 298 302 306 309 312 316 316 316
297 298 299 299 300 300 297 297 295 294 295 293 292 293 292 291 289 289 288 287 287 287 287 286 286 287 287 288 288 287 287 287 287 288 288 296 300 304 308 311 312 314 315
296 296 298 298 299 298 297 296 296 294 294 292 291 292 292 290 289 289 288 287 286 286 286 286 286 285 286 286 286 287 287 287 287 287 287 288 298 302 306 310 310 312 313
296 296 295 297 298 297 296 295 294 294 294 293 291 291 291 290 289 288 287 286 286 286 286 286 285 285 284 285 285 286 287 287 286 286 287 288 290 297 303 306 307 308 311
297 295 295 297 296 297 296 294 294 294 294 293 290 290 290 290 289 287 287 286 285 285 285 284 284 283 283 283 283 284 284 285 286 286 287 288 289 291 296 303 304 306 306
298 297 294 295 295 295 295 295 294 293 293 293 290 289 289 289 289 288 286 285 285 284 284 284 283 283 282 282 283 283 283 283 284 287 286 288 288 290 288 299 297 297 301
298 298 295 295 295 295 295 293 291 291 292 290 291 290 289 289 288 287 285 285 285 284 283 283 282 282 282 281 283 283 282 283 284 284 283 285 286 286 288 288 287 288 295
296 296 295 293 294 294 292 290 291 291 291 290 290 290 288 288 288 286 285 284 284 283 283 282 282 281 281 281 280 281 281 283 282 282 283 283 284 286 285 285 286 286 287
296 296 295 294 294 294 294 294 293 293 290 291 289 288 288 287 287 286 285 284 283 282 282 282 282 280 281 280 279 279 278 280 282 282 282 283 282 283 284 285 284 285 285
296 296 295 295 294 294 295 293 287 287 285 285 285 287 287 287 286 286 284 284 283 282 282 281 281 281 280 280 279 279 277 277 277 280 281 281 281 281 282 283 284 284 285
296 297 296 295 294 294 294 292 291 290 289 289 290 289 287 286 285 285 284 283 282 282 281 281 281 280 280 279 280 281 279 278 277 276 280 279 281 281 281 282 282 283 284
295 295 295 294 293 293 293 293 292 291 291 288 286 285 286 285 286 285 284 283 282 281 280 281 280 280 280 279 279 279 278 278 278 277 276 277 279 280 281 281 281 282 283
292 293 293 292 291 292 292 292 291 291 288 285 286 285 285 285 284 283 283 282 281 281 280 280 280 280 280 280 280 279 279 277 277 276 275 275 276 278 279 280 280 281 282

GFSSE_sfc_thetae_036.txt.gz
Theta_e
323 331 345 347 349 349 349 348 348 348 347 346 348 347 347 346 347 348 348 348 348 348 347 346 346 345 344 344 343 342 339 339 338 339 340 341 348 346 350 350 348 346 351
326 332 345 348 348 349 349 349 348 348 348 347 346 345 344 343 343 343 343 343 344 345 344 343 341 340 341 339 338 336 336 335 333 333 335 334 341 350 350 349 349 347 350
329 334 340 347 349 349 349 349 348 348 348 346 345 344 342 340 338 337 337 339 340 341 340 336 334 334 333 333 332 331 330 329 326 327 329 326 330 348 347 346 346 347 348
330 332 336 345 348 349 348 347 348 347 347 346 343 341 339 339 336 335 335 336 337 336 334 333 331 328 328 326 326 324 326 324 324 326 320 326 329 346 347 345 344 344 345
326 329 333 342 347 348 348 348 347 345 344 342 341 338 339 336 334 332 331 333 334 332 329 326 324 323 322 321 322 322 322 321 320 317 316 319 326 340 346 344 342 341 342
322 325 334 341 343 342 343 343 342 342 341 339 337 336 335 333 330 327 327 329 327 325 323 322 321 320 320 320 320 319 318 315 310 304 309 314 323 343 343 341 340 340 339
318 322 328 339 341 341 340 341 338 339 338 336 335 334 331 328 326 325 325 324 323 322 321 321 320 320 319 318 317 317 314 311 299 301 306 309 320 334 334 335 335 336 335
317 319 325 333 336 336 339 337 337 337 335 334 332 330 327 325 323 323 323 322 322 321 321 321 320 318 317 316 314 313 310 306 298 298 303 307 324 329 329 329 329 329 329
314 317 320 324 328 332 334 333 336 335 333 331 328 326 324 323 322 321 321 321 320 320 319 317 316 316 315 313 311 308 306 304 293 297 303 307 322 325 326 325 325 325 325
310 314 315 317 319 320 322 329 331 331 330 328 326 325 323 322 321 321 320 320 319 318 316 314 313 312 311 309 307 304 302 300 292 294 298 306 317 321 322 322 322 322 323
307 309 311 312 313 314 314 318 324 326 325 324 322 320 314 305 306 306 313 318 317 315 313 312 309 307 305 305 304 302 297 290 291 292 296 308 314 318 319 319 320 321 322
304 305 307 308 309 309 312 311 311 313 311 309 307 303 300 299 299 303 310 315 314 312 310 308 305 301 294 289 289 293 288 289 289 290 294 307 311 314 317 318 319 321 322
306 305 306 306 306 306 307 305 304 304 302 301 300 297 295 296 298 297 296 295 294 297 292 292 289 289 288 288 288 287 287 287 287 289 295 303 307 311 314 316 319 319 320
301 304 304 304 304 303 304 304 301 301 298 296 296 294 292 293 293 292 290 288 288 288 287 287 287 287 287 288 287 287 287 287 286 288 290 300 305 310 314 317 317 317 318
299 302 303 304 304 304 301 301 299 298 298 295 293 292 292 292 290 289 288 287 286 287 286 286 286 286 286 287 287 286 286 286 286 287 287 300 305 309 312 315 316 317 318
300 300 302 302 304 303 303 301 300 298 296 293 292 292 291 292 289 288 287 286 286 286 286 286 285 285 285 286 286 286 286 286 286 286 287 290 303 307 312 311 314 315 315
299 300 299 301 302 301 302 300 299 297 295 294 292 291 291 291 289 288 287 285 285 285 286 285 284 284 284 285 284 285 285 285 285 286 287 288 291 303 307 310 310 311 311
298 296 297 301 300 300 300 298 298 296 295 294 292 292 291 291 289 287 287 285 285 285 285 284 283 283 283 283 282 283 283 285 285 286 287 288 289 291 299 305 304 305 306
298 297 295 297 298 299 299 297 296 294 294 293 292 291 291 290 289 288 287 285 285 284 284 284 282 282 281 282 283 282 282 283 284 286 285 285 289 288 290 296 296 296 299
298 298 296 295 297 297 298 295 293 292 293 292 292 291 290 291 289 288 286 285 284 283 283 283 282 282 281 281 283 282 282 283 282 282 282 284 285 287 285 286 286 286 294
296 296 295 293 295 295 295 292 292 292 292 291 292 291 290 290 289 288 286 285 284 283 283 282 281 281 281 280 280 280 281 282 282 282 282 283 284 284 284 284 284 284 285
296 296 296 295 294 294 295 295 295 295 293 293 291 290 290 289 288 287 286 285 284 282 282 281 281 280 281 279 280 279 278 280 281 282 282 282 281 282 282 283 283 283 284
293 294 295 295 295 294 295 294 287 287 286 286 287 288 289 288 288 288 286 285 284 283 282 281 281 281 280 279 279 280 277 279 277 280 280 281 281 281 281 282 283 283 283
294 295 295 295 295 294 294 293 292 292 290 290 290 290 289 288 287 287 286 285 284 283 282 282 281 280 280 279 279 281 278 278 277 276 279 279 280 280 280 280 281 282 283
293 293 295 295 294 294 293 294 292 293 293 289 290 289 288 287 287 286 285 284 283 283 282 281 280 280 279 280 279 279 278 277 278 277 276 277 279 279 280 280 281 281 282
293 292 292 293 293 292 292 293 292 292 291 287 287 287 287 286 286 285 285 284 284 283 281 281 281 280 280 280 280 280 279 278 277 277 276 276 276 278 279 279 279 279 281

GFSSE_sfc_thetae_042.txt.gz
Theta_e
334 336 347 349 350 350 351 351 351 350 349 349 349 348 348 348 349 348 348 349 348 347 346 345 345 344 341 339 337 337 336 337 339 343 347 351 351 350 349 349 350 349 350
334 336 346 349 352 351 350 351 350 350 348 348 348 349 348 347 346 346 346 347 346 345 343 341 339 339 337 334 333 333 332 335 336 338 342 348 348 347 346 346 348 348 350
333 337 345 348 351 351 350 350 350 349 348 348 348 347 346 342 340 340 342 342 343 342 339 337 335 334 333 329 329 330 331 334 334 335 341 344 345 346 344 343 344 346 348
333 336 339 345 350 351 351 350 349 348 348 348 347 345 343 339 337 337 337 339 339 338 337 334 331 329 326 326 327 328 331 331 331 334 341 341 344 345 344 341 341 342 344
334 337 340 344 349 351 351 351 350 350 349 347 346 343 341 338 337 336 336 337 337 336 332 328 326 324 324 323 323 324 327 326 326 336 340 342 342 343 343 339 338 338 339
335 338 342 345 349 350 350 350 350 349 348 347 344 340 340 338 335 334 335 335 334 330 327 324 323 322 321 321 320 321 322 320 327 334 337 338 339 339 339 338 336 334 336
335 340 343 344 347 349 349 350 349 348 348 346 342 339 338 336 333 330 333 330 328 326 324 324 323 321 320 319 318 317 316 316 324 328 332 335 335 334 335 334 333 332 331
335 339 342 338 341 344 346 347 347 347 344 341 340 339 336 334 331 329 329 326 325 324 324 324 321 320 318 316 315 313 312 312 319 323 327 330 330 331 331 330 330 329 329
336 338 340 343 341 335 338 339 339 340 340 339 338 337 335 332 328 327 326 325 324 324 323 321 320 318 316 314 312 310 308 309 316 318 320 326 326 328 327 327 327 326 327
334 336 338 340 342 342 342 332 334 336 336 336 336 333 330 328 327 327 325 325 323 323 321 319 318 316 313 310 308 306 304 307 308 311 316 319 321 324 324 324 324 325 326
327 332 335 336 339 339 339 336 329 330 331 331 331 326 323 326 324 322 322 324 323 320 319 317 316 313 310 307 304 301 301 303 304 307 311 314 317 319 321 322 324 325 325
323 326 329 332 334 336 335 335 336 334 333 331 331 329 327 324 322 320 318 321 321 319 316 314 311 306 300 303 301 299 302 302 302 305 309 310 314 318 319 322 323 323 323
323 324 325 328 331 332 332 332 331 332 331 329 331 328 325 321 319 319 319 319 318 314 313 310 304 301 301 301 301 301 300 301 302 302 304 306 312 316 321 321 321 321 323
320 322 324 326 328 329 331 330 331 329 328 327 327 325 321 318 317 316 316 317 316 313 310 304 302 302 300 300 300 299 299 300 301 301 303 305 312 318 320 321 321 322 324
317 319 321 323 325 326 327 328 328 327 326 327 324 321 319 317 314 314 314 314 313 309 306 301 301 300 299 299 299 299 298 299 299 301 307 306 311 317 319 321 321 322 319
314 316 319 320 322 324 324 325 325 325 325 324 322 319 317 316 313 311 311 310 309 306 302 301 300 300 299 299 297 297 297 298 298 300 306 309 309 318 319 320 321 318 315
313 314 316 317 319 321 322 323 323 323 322 322 319 318 314 313 311 309 308 307 305 302 300 300 299 299 298 297 297 297 297 297 298 299 302 309 311 311 317 316 316 313 310
311 312 314 314 316 318 319 321 320 320 319 318 318 315 312 309 308 307 305 304 301 300 299 298 297 297 297 297 296 296 296 297 297 298 300 306 308 310 311 311 309 306 304
310 310 311 313 313 315 317 319 319 318 317 316 316 313 311 308 306 304 304 302 300 298 298 297 297 297 296 296 295 296 296 297 298 297 300 303 306 307 307 298 298 299 302
309 309 310 310 311 313 314 316 317 316 315 315 314 312 310 307 304 303 303 301 298 297 297 297 296 296 297 296 291 293 295 297 297 297 298 299 302 299 299 296 296 297 298
307 307 307 307 308 309 310 311 312 311 312 311 312 310 308 306 303 302 301 300 298 297 297 296 296 294 294 295 293 293 293 293 293 294 295 297 297 295 295 295 295 295 297
307 306 306 306 306 307 308 310 310 310 311 310 311 308 307 305 304 301 301 300 297 297 296 296 295 294 295 294 294 294 290 290 291 292 293 295 295 294 293 292 293 293 294
306 305 305 305 305 305 306 307 307 308 306 306 307 306 305 304 302 301 301 299 297 297 296 296 295 295 293 293 295 295 291 292 290 291 291 293 293 292 292 292 291 292 293
304 306 304 304 304 304 304 304 304 302 302 303 304 304 304 303 302 301 300 299 298 297 296 296 296 296 297 292 292 291 292 295 292 287 290 290 291 290 291 291 291 291 292
302 302 303 303 303 303 303 302 303 302 303 304 304 302 302 301 301 300 300 299 298 297 297 296 294 295 296 296 293 291 290 291 292 293 289 287 290 290 291 291 291 291 291
300 299 299 299 299 301 301 301 301 301 301 302 302 300 300 300 298 299 299 298 298 297 296 296 295 295 294 296 295 294 292 291 290 291 291 290 289 290 291 291 290 290 291

GFSSE_sfc_thetae_048.txt.gz
Theta_e
330 340 349 351 351 351 351 352 352 352 352 349 349 349 349 349 349 349 350 351 350 347 346 346 344 342 340 338 337 337 340 344 347 352 350 349 348 349 350 351 349 348 352
334 340 348 351 352 353 353 353 352 352 351 350 350 349 349 348 348 348 349 348 347 345 344 342 341 339 336 334 334 335 338 340 341 346 347 346 346 346 347 349 349 348 351
332 339 347 349 351 353 353 353 352 352 350 349 349 349 349 348 347 347 346 345 344 342 340 338 337 335 331 331 332 334 336 337 337 339 343 341 340 343 344 345 348 348 349
331 339 343 347 350 352 353 352 351 350 351 350 350 350 347 344 340 340 341 342 342 340 337 336 332 329 328 328 330 332 332 333 334 337 335 341 340 344 341 341 342 343 346
328 338 341 345 350 351 351 351 350 349 349 351 351 348 345 341 338 336 336 338 340 337 333 331 327 326 325 325 326 328 329 330 333 332 337 339 339 342 342 339 337 338 340
327 333 340 346 350 350 350 350 349 349 349 350 349 345 345 340 337 335 335 336 336 333 330 327 325 323 322 321 323 324 325 327 331 326 333 336 334 341 339 336 334 334 337
326 329 340 345 348 349 349 349 349 349 349 349 348 344 343 342 336 334 334 334 334 330 327 325 323 322 320 320 320 320 320 323 323 325 329 330 330 337 335 334 333 333 333
327 331 339 339 342 346 348 348 348 349 349 348 345 344 342 340 336 333 333 333 330 327 326 324 322 320 319 317 317 316 317 320 321 322 324 324 332 331 331 331 331 330 331
328 330 335 338 339 338 342 343 345 347 347 346 343 342 340 338 335 333 333 330 328 326 326 323 321 319 317 315 314 312 313 316 313 316 323 321 330 329 329 328 328 328 329
327 330 332 336 338 340 340 337 339 342 342 341 339 336 333 333 332 330 328 329 326 325 325 323 320 318 315 312 309 307 309 312 307 310 314 316 326 325 325 326 326 327 328
326 328 331 332 335 337 338 337 334 336 335 334 332 329 326 326 326 323 323 326 327 327 324 322 319 316 312 308 304 302 306 299 300 303 310 318 320 321 323 325 325 326 325
320 325 329 330 331 334 338 334 333 332 329 329 329 325 325 325 324 322 319 324 326 325 324 321 318 314 310 299 297 301 298 297 298 300 306 315 317 320 322 324 324 324 325
319 323 326 328 330 330 331 332 334 332 328 327 327 325 324 324 320 316 314 315 314 315 312 313 309 303 299 297 296 296 296 296 295 298 305 310 315 317 323 323 322 323 325
314 319 323 325 328 328 329 328 330 332 330 328 327 325 323 321 316 313 313 313 312 309 308 306 301 299 297 298 297 296 296 295 294 296 300 308 312 319 322 322 322 324 323
309 314 320 323 323 326 327 327 327 326 326 326 325 324 323 319 314 312 311 312 312 308 307 303 299 298 297 296 296 296 295 294 294 295 299 308 312 319 322 322 324 325 320
309 310 316 321 322 324 324 325 324 324 324 324 323 322 323 318 314 311 309 310 310 307 305 300 297 296 296 296 295 295 294 294 295 296 301 303 313 317 321 322 326 322 317
308 310 312 316 320 321 322 323 323 323 323 321 322 323 322 318 314 310 308 308 308 306 303 298 297 296 295 296 294 294 294 294 294 296 299 304 307 314 318 323 322 319 314
304 308 310 313 316 318 319 321 322 321 321 320 320 320 319 318 314 309 307 306 306 303 299 296 294 294 293 293 292 292 292 293 294 295 297 302 307 305 307 321 318 314 309
304 305 307 311 312 314 316 318 319 319 318 318 318 318 317 316 314 309 306 305 305 300 297 295 293 293 292 291 292 291 291 291 293 295 295 300 303 300 298 308 308 306 308
304 304 305 308 310 311 312 313 314 315 316 316 315 315 315 313 312 308 304 303 302 298 295 294 293 293 292 291 292 291 290 292 293 292 294 299 301 300 296 294 295 297 302
302 302 303 302 305 306 307 307 308 309 311 311 312 313 313 311 310 307 303 301 300 297 295 295 292 292 291 291 288 288 288 290 291 292 293 295 298 297 296 293 292 292 295
299 300 300 301 302 303 304 306 307 307 308 309 311 311 311 310 308 306 303 300 298 294 294 293 292 290 290 291 287 286 283 285 287 290 290 293 294 294 292 292 291 291 293
296 297 298 298 299 301 301 302 302 303 303 303 302 304 308 309 307 305 302 300 297 295 295 294 293 292 289 289 291 289 285 284 283 286 287 289 291 291 290 290 290 291 291
294 295 295 296 297 298 299 299 297 298 297 300 300 302 304 306 306 305 303 300 297 296 293 293 294 293 290 290 288 292 289 288 284 281 285 286 288 290 289 288 288 289 290
293 293 293 293 294 295 296 295 295 295 297 298 298 298 299 301 303 303 302 300 298 296 294 292 292 292 293 290 290 287 287 286 287 283 280 282 286 287 289 289 288 287 289
292 291 291 291 291 292 292 293 293 292 292 293 294 294 296 298 299 300 300 299 297 297 294 293 292 292 293 293 291 288 287 287 285 286 283 281 282 283 286 288 287 287 287